Location: Erdweis
(48.5167°N, 15.3500°E)
Time: 01:09:57
(UTC+00:00)

NOSS 2-2 (C) - Pass Details

Date: 23 January 2021
Orbit: 463 x 1745 km, 63.3° (Epoch: 03 March)

Event Time Altitude Azimuth Distance (km) Brightness Sun altitude
Rises 19:19:09 0° 319° (NW) 3,036 7.7 -35.4°
Reaches altitude 10° 19:21:13 10° 323° (NW) 2,255 6.9 -35.8°
Enters shadow 19:22:53 23° 328° (NNW) 1,665 6.0 -36.0°
